{"data":{"norad_id":53704,"epoch":"2026-05-25T00:30:12.447360Z","epoch_age_seconds":73108,"freshness":"FRESH","line1":"1 53704U 22107E   26145.02097740  .00000217  00000+0  31688-4 0  9997","line2":"2 53704  53.2132 261.7100 0001142  93.1587 266.9536 15.08838491206210","mean_motion":15.08838491,"eccentricity":0.0001142,"inclination_deg":53.2132,"raan_deg":261.71,"arg_perigee_deg":93.1587,"mean_anomaly_deg":266.9536,"bstar":3.1688e-5,"rev_number":20621,"period_min":95.437650125536,"perigee_km":538.95797891011,"apogee_km":540.53802384442,"semimajor_km":6917.8850013773,"source":"CELESTRAK","updated_at":"2026-05-25T13:38:17.532318Z"}}